Flag for Netherlands Weather past 2 weeks in Zaandam, Netherlands

37 °F

Scattered showers. Passing clouds.

Feels Like: 32 °F
Forecast: 43 / 47 °F
Wind: 7 mph from Northwest

Location: Amsterdam Schiphol Airport

Current Time: Nov 26, 2015 at 1:05:34 AM

Latest Report: Nov 26, 2015 at 12:25 AM

Visibility: N/A

Pressure: 29.86 "Hg

Humidity: 93%

Dew point: 36 °F

Location of ZaandamLocation

Historic Weather in Zaandam — Graph


Zaandam temperature yesterday

Maximum temperature yesterday: 46 °F (at 1:55 AM)
Minimum temperature yesterday: 39 °F (at 10:25 PM)
Average temperature yesterday: 44 °F

Past Weeks' High & Low Weather Summary

High59 °F (Nov 12, 10:55 AM)100% (Nov 11, 2:25 AM)30.24 "Hg (Nov 11, 2:25 AM)
Low30 °F (Nov 23, 5:25 AM)59% (Nov 13, 1:25 PM)29.30 "Hg (Nov 21, 6:55 AM)
Average49 °F84%29.86 "Hg
* Reported Nov 10 11:55 PM — Nov 25 11:25 PM, Zaandam, Weather by CustomWeather, © 2015

Note: Actual official high and low records may vary slightly from our data, if they occured in-between our weather recording intervals... More about our weather records


Zaandam weather history for previous 24 hours

Time TempWeatherWind HumidityBarometerVisibility
11:25 PM
Wed, Nov 25
45 °FScattered showers. Passing clouds.15 mph76%29.83 "HgN/A
10:55 PM43 °FPassing clouds.7 mph81%29.83 "HgN/A
10:25 PM39 °FPassing clouds.2 mph93%29.83 "HgN/A
9:55 PM43 °FPassing clouds.2 mph87%29.80 "HgN/A
9:25 PM43 °FPassing clouds.7 mph87%29.80 "HgN/A
8:55 PM43 °FSprinkles. Passing clouds.10 mph93%29.80 "HgN/A
8:25 PM43 °FSprinkles. Passing clouds.9 mph93%29.77 "HgN/A
7:55 PM43 °FScattered showers. Passing clouds.7 mph87%29.77 "HgN/A
7:25 PM45 °FSprinkles. Passing clouds.10 mph87%29.74 "HgN/A
6:55 PM43 °FScattered showers. Passing clouds.7 mph87%29.74 "HgN/A
6:25 PM45 °FRain showers. Passing clouds.2 mph81%29.74 "HgN/A
5:55 PM43 °FSprinkles. Passing clouds.5 mph87%29.71 "HgN/A
5:25 PM43 °FScattered showers. Passing clouds.3 mph87%29.71 "HgN/A
4:55 PM43 °FPassing clouds.5 mph93%29.71 "HgN/A
4:25 PM43 °FSprinkles. Passing clouds.8 mph93%29.71 "HgN/A
3:55 PM43 °FSprinkles. Passing clouds.12 mph93%29.68 "Hg6 mi
3:25 PM46 °FSprinkles. Scattered clouds.14 mph76%29.68 "HgN/A
2:55 PM45 °FSprinkles. Scattered clouds.9 mph87%29.68 "Hg5 mi
2:25 PM45 °FPassing clouds.9 mph81%29.68 "HgN/A
1:55 PM45 °FSprinkles. Scattered clouds.8 mph81%29.68 "HgN/A
1:25 PM43 °FRain showers. Broken clouds.18 mph93%29.68 "Hg4 mi
12:55 PM46 °FSprinkles. Scattered clouds.6 mph82%29.68 "Hg6 mi
12:25 PM43 °FPassing clouds.3 mph93%29.68 "HgN/A
11:55 AM45 °FRain showers. Scattered clouds.13 mph87%29.68 "Hg4 mi
11:25 AM45 °FSprinkles. Scattered clouds.8 mph87%29.68 "HgN/A
10:55 AM45 °FSprinkles. Passing clouds.2 mph87%29.68 "HgN/A
10:25 AM45 °FSprinkles. Passing clouds.6 mph87%29.68 "Hg4 mi
9:55 AM45 °FPassing clouds.3 mph81%29.65 "HgN/A
9:25 AM41 °FPassing clouds.5 mph87%29.65 "HgN/A
8:55 AM43 °FSprinkles. Passing clouds.8 mph93%29.65 "Hg6 mi
7:55 AM45 °FSprinkles. Passing clouds.6 mph81%29.62 "HgN/A
6:55 AM45 °FSprinkles. Partly cloudy.13 mph87%29.62 "HgN/A
6:25 AM45 °FPassing clouds.12 mph81%29.62 "HgN/A
5:55 AM45 °FScattered showers. Passing clouds.13 mph87%29.62 "HgN/A
5:25 AM45 °FSprinkles. Passing clouds.16 mph81%29.62 "HgN/A
4:55 AM45 °FScattered showers. Passing clouds.9 mph87%29.62 "HgN/A
4:25 AM43 °FScattered showers. Passing clouds.8 mph93%29.62 "HgN/A
3:55 AM45 °FScattered showers. Passing clouds.9 mph87%29.65 "HgN/A
3:25 AM45 °FSprinkles. Passing clouds.12 mph87%29.65 "HgN/A
2:55 AM45 °FScattered showers. Passing clouds.10 mph87%29.65 "HgN/A
2:25 AM46 °FPassing clouds.9 mph87%29.65 "HgN/A
1:55 AM46 °FSprinkles. Passing clouds.6 mph93%29.65 "HgN/A
1:25 AM43 °FPassing clouds.6 mph100%29.65 "HgN/A
Weather by CustomWeather, © 2015

See weather overviewHow to use our weather pages